WZZ3642 LZIB-EDJA

Flight info

Callsign WZZ3642
Flight time 0h 57m
Altitude 38000
Route TOVKA1E TOVKA DCT SITNI DCT NEMAL DCT ERANI DCT ERKIR L608 KPT KPT1C
Aircraft A320/M-SDE3FGHIRWY/LB1

Departure

Time 2026-04-27 14:07
Airport M. R. Štefánik Airport (LZIB)

Arrival

Time 2026-04-27 15:05
Airport Memmingen Allgau Airport (EDJA)
Time Latitude Longitude Altitude Speed Heading
2026-04-27 13:36 48.17046 17.20273 432 ft 0 kts 320°
2026-04-27 13:57 48.17043 17.20277 437 ft 3 kts 319°
2026-04-27 13:57 48.17025 17.20306 427 ft 4 kts 297°
2026-04-27 13:58 48.17018 17.20342 431 ft 4 kts 256°
2026-04-27 13:58 48.17025 17.20363 432 ft 0 kts 224°
2026-04-27 14:01 48.17023 17.20361 444 ft 1 kts 224°
2026-04-27 14:01 48.17000 17.20327 427 ft 9 kts 224°
2026-04-27 14:02 48.16948 17.20252 435 ft 12 kts 223°
2026-04-27 14:02 48.16887 17.20169 439 ft 9 kts 223°
2026-04-27 14:02 48.16839 17.20180 434 ft 9 kts 139°
2026-04-27 14:02 48.16785 17.20257 436 ft 12 kts 135°
2026-04-27 14:03 48.16719 17.20355 436 ft 12 kts 144°
2026-04-27 14:03 48.16669 17.20316 437 ft 10 kts 220°
2026-04-27 14:03 48.16607 17.20237 435 ft 13 kts 220°
2026-04-27 14:03 48.16528 17.20136 435 ft 16 kts 220°
2026-04-27 14:04 48.16433 17.20016 436 ft 19 kts 220°
2026-04-27 14:04 48.16345 17.19904 436 ft 17 kts 220°
2026-04-27 14:04 48.16254 17.19797 439 ft 13 kts 206°
2026-04-27 14:04 48.16171 17.19828 439 ft 10 kts 135°
2026-04-27 14:05 48.16159 17.19847 436 ft 0 kts 132°
2026-04-27 14:05 48.16155 17.19853 436 ft 4 kts 132°
2026-04-27 14:06 48.16124 17.19909 436 ft 9 kts 122°
2026-04-27 14:06 48.16128 17.20007 432 ft 11 kts 54°
2026-04-27 14:06 48.16146 17.20034 436 ft 0 kts 44°
2026-04-27 14:06 48.16189 17.20097 436 ft 36 kts 44°
2026-04-27 14:07 48.16569 17.20642 437 ft 110 kts 44°
2026-04-27 14:07 48.17257 17.21636 485 ft 159 kts 44°
2026-04-27 14:07 48.18058 17.22805 1160 ft 161 kts 45°
2026-04-27 14:07 48.18851 17.23991 1884 ft 160 kts 45°
2026-04-27 14:08 48.19677 17.25193 2342 ft 176 kts 44°
2026-04-27 14:08 48.20290 17.26067 2587 ft 191 kts 44°
2026-04-27 14:08 48.21307 17.27518 3013 ft 209 kts 44°
2026-04-27 14:08 48.22922 17.29098 3857 ft 215 kts
2026-04-27 14:09 48.23904 17.28976 4333 ft 215 kts 339°
2026-04-27 14:09 48.25055 17.27583 5066 ft 216 kts 300°
2026-04-27 14:09 48.25360 17.25405 5789 ft 219 kts 263°
2026-04-27 14:09 48.24828 17.23254 6571 ft 220 kts 248°
2026-04-27 14:10 48.24168 17.21182 7288 ft 220 kts 247°
2026-04-27 14:10 48.23498 17.19119 7980 ft 222 kts 247°
2026-04-27 14:10 48.22824 17.17041 8650 ft 223 kts 248°
2026-04-27 14:10 48.22142 17.14942 9415 ft 222 kts 248°
2026-04-27 14:11 48.21509 17.12847 9898 ft 224 kts 256°
2026-04-27 14:11 48.21339 17.10564 9980 ft 220 kts 278°
2026-04-27 14:11 48.21821 17.08216 9982 ft 253 kts 297°
2026-04-27 14:11 48.22656 17.05757 9983 ft 266 kts 297°
2026-04-27 14:12 48.23503 17.03230 10358 ft 277 kts 297°
2026-04-27 14:12 48.24387 17.00571 10749 ft 297 kts 297°
2026-04-27 14:12 48.25326 16.97744 11409 ft 306 kts 297°
2026-04-27 14:12 48.26267 16.94863 12195 ft 311 kts 294°
2026-04-27 14:13 48.26794 16.91648 12981 ft 318 kts 275°
2026-04-27 14:13 48.26638 16.88332 13748 ft 325 kts 264°
2026-04-27 14:13 48.26312 16.84927 14484 ft 329 kts 264°
2026-04-27 14:13 48.25983 16.81538 15169 ft 333 kts 264°
2026-04-27 14:14 48.25648 16.78073 15859 ft 336 kts 264°
2026-04-27 14:14 48.25315 16.74603 16528 ft 340 kts 264°
2026-04-27 14:14 48.24976 16.71050 17222 ft 343 kts 264°
2026-04-27 14:14 48.24638 16.67527 17904 ft 347 kts 264°
2026-04-27 14:15 48.24293 16.63929 18579 ft 350 kts 264°
2026-04-27 14:15 48.23943 16.60296 19181 ft 354 kts 264°
2026-04-27 14:15 48.23586 16.56630 19797 ft 357 kts 264°
2026-04-27 14:15 48.23225 16.52934 20418 ft 360 kts 265°
2026-04-27 14:16 48.22858 16.49182 21015 ft 363 kts 265°
2026-04-27 14:16 48.22490 16.45449 21591 ft 365 kts 265°
2026-04-27 14:16 48.22116 16.41645 22160 ft 368 kts 265°
2026-04-27 14:16 48.21743 16.37859 22715 ft 371 kts 265°
2026-04-27 14:17 48.21364 16.34010 23286 ft 374 kts 265°
2026-04-27 14:17 48.20983 16.30160 23845 ft 377 kts 265°
2026-04-27 14:17 48.20592 16.26225 24324 ft 380 kts 265°
2026-04-27 14:17 48.20200 16.22296 24796 ft 382 kts 265°
2026-04-27 14:18 48.19804 16.18349 25262 ft 384 kts 265°
2026-04-27 14:18 48.19405 16.14403 25747 ft 387 kts 265°
2026-04-27 14:18 48.19001 16.10404 26206 ft 389 kts 265°
2026-04-27 14:18 48.18594 16.06367 26656 ft 392 kts 265°
2026-04-27 14:19 48.18184 16.02322 27131 ft 394 kts 265°
2026-04-27 14:19 48.17769 15.98257 27549 ft 396 kts 265°
2026-04-27 14:19 48.17349 15.94161 27991 ft 399 kts 265°
2026-04-27 14:19 48.16924 15.90036 28435 ft 401 kts 265°
2026-04-27 14:20 48.16500 15.85935 28864 ft 404 kts 265°
2026-04-27 14:20 48.16065 15.81753 29305 ft 406 kts 265°
2026-04-27 14:20 48.15628 15.77544 29751 ft 408 kts 265°
2026-04-27 14:20 48.15192 15.73365 30194 ft 411 kts 265°
2026-04-27 14:21 48.14747 15.69106 30573 ft 413 kts 265°
2026-04-27 14:21 48.14299 15.64835 30958 ft 416 kts 265°
2026-04-27 14:21 48.13851 15.60590 31332 ft 418 kts 265°
2026-04-27 14:21 48.13395 15.56277 31708 ft 420 kts 265°
2026-04-27 14:22 48.12936 15.51934 32116 ft 421 kts 265°
2026-04-27 14:22 48.12472 15.47598 32655 ft 420 kts 265°
2026-04-27 14:22 48.12007 15.43289 33191 ft 418 kts 265°
2026-04-27 14:22 48.11550 15.39044 33721 ft 417 kts 265°
2026-04-27 14:23 48.11086 15.34755 34247 ft 415 kts 265°
2026-04-27 14:23 48.10622 15.30470 34685 ft 415 kts 265°
2026-04-27 14:23 48.10167 15.26257 35096 ft 414 kts 265°
2026-04-27 14:23 48.09705 15.21994 35487 ft 414 kts 265°
2026-04-27 14:24 48.09242 15.17741 35873 ft 414 kts 265°
2026-04-27 14:24 48.08777 15.13522 36122 ft 415 kts 265°
2026-04-27 14:24 48.08306 15.09263 36160 ft 411 kts 264°
2026-04-27 14:25 48.07372 15.00890 36168 ft 408 kts 265°
2026-04-27 14:25 48.06437 14.92502 36168 ft 408 kts 265°
2026-04-27 14:26 48.05502 14.84177 36170 ft 408 kts 264°
2026-04-27 14:26 48.04623 14.75806 36166 ft 407 kts 266°
2026-04-27 14:27 48.03842 14.67401 36169 ft 407 kts 266°
2026-04-27 14:27 48.03064 14.59070 36158 ft 407 kts 266°
2026-04-27 14:28 48.02237 14.50552 36167 ft 420 kts 265°
2026-04-27 14:28 48.01366 14.41867 36168 ft 424 kts 265°
2026-04-27 14:29 48.00490 14.33194 36168 ft 424 kts 265°
2026-04-27 14:29 47.99617 14.24484 36167 ft 424 kts 265°
2026-04-27 14:30 47.98737 14.15810 36166 ft 424 kts 265°
2026-04-27 14:30 47.97844 14.07088 36162 ft 424 kts 265°
2026-04-27 14:31 47.96940 13.98405 36178 ft 424 kts 265°
2026-04-27 14:31 47.96033 13.89725 36176 ft 424 kts 265°
2026-04-27 14:32 47.95123 13.81024 36179 ft 424 kts 265°
2026-04-27 14:32 47.94215 13.72332 36174 ft 424 kts 265°
2026-04-27 14:33 47.93293 13.63693 36173 ft 424 kts 265°
2026-04-27 14:33 47.92360 13.55001 36182 ft 423 kts 264°
2026-04-27 14:34 47.90716 13.46543 36185 ft 432 kts 248°
2026-04-27 14:34 47.88020 13.38538 36180 ft 432 kts 248°
2026-04-27 14:35 47.85324 13.30535 36161 ft 433 kts 248°
2026-04-27 14:35 47.82622 13.22518 36164 ft 433 kts 248°
2026-04-27 14:36 47.79928 13.14547 36161 ft 433 kts 248°
2026-04-27 14:36 47.77214 13.06545 36179 ft 433 kts 248°
2026-04-27 14:37 47.74490 12.98541 36186 ft 433 kts 248°
2026-04-27 14:37 47.72359 12.90265 36187 ft 427 kts 257°
2026-04-27 14:38 47.70652 12.81850 36167 ft 427 kts 257°
2026-04-27 14:38 47.68923 12.73395 36161 ft 427 kts 257°
2026-04-27 14:39 47.67191 12.64974 35887 ft 428 kts 257°
2026-04-27 14:39 47.66326 12.60801 35765 ft 415 kts 257°
2026-04-27 14:39 47.65492 12.56809 35668 ft 403 kts 257°
2026-04-27 14:39 47.64667 12.52864 35525 ft 393 kts 257°
2026-04-27 14:40 47.63867 12.49006 35195 ft 397 kts 257°
2026-04-27 14:40 47.63058 12.45065 34840 ft 399 kts 257°
2026-04-27 14:40 47.62244 12.41110 34435 ft 400 kts 257°
2026-04-27 14:40 47.61424 12.37149 33535 ft 399 kts 256°
2026-04-27 14:41 47.60614 12.33288 33267 ft 388 kts 256°
2026-04-27 14:41 47.59813 12.29485 32821 ft 385 kts 256°
2026-04-27 14:41 47.59029 12.25768 32405 ft 380 kts 256°
2026-04-27 14:41 47.58243 12.22038 31976 ft 378 kts 256°
2026-04-27 14:42 47.57462 12.18329 31550 ft 376 kts 256°
2026-04-27 14:42 47.56685 12.14640 31157 ft 373 kts 256°
2026-04-27 14:42 47.55910 12.10963 30751 ft 371 kts 256°
2026-04-27 14:42 47.55142 12.07341 30371 ft 365 kts 256°
2026-04-27 14:43 47.54458 12.03786 29956 ft 359 kts 262°
2026-04-27 14:43 47.54195 12.00142 29574 ft 352 kts 273°
2026-04-27 14:43 47.54392 11.96555 29193 ft 346 kts 282°
2026-04-27 14:43 47.54887 11.93072 28824 ft 343 kts 284°
2026-04-27 14:44 47.55372 11.89669 28459 ft 340 kts 284°
2026-04-27 14:44 47.55850 11.86260 28093 ft 337 kts 283°
2026-04-27 14:44 47.56320 11.82883 27742 ft 333 kts 283°
2026-04-27 14:44 47.56781 11.79549 27371 ft 330 kts 283°
2026-04-27 14:45 47.57242 11.76228 26993 ft 327 kts 283°
2026-04-27 14:45 47.57701 11.72929 26630 ft 325 kts 283°
2026-04-27 14:45 47.58156 11.69657 26250 ft 323 kts 283°
2026-04-27 14:45 47.58601 11.66433 25883 ft 321 kts 283°
2026-04-27 14:46 47.59047 11.63198 25503 ft 319 kts 283°
2026-04-27 14:46 47.59490 11.59974 25111 ft 318 kts 283°
2026-04-27 14:46 47.59932 11.56754 24716 ft 318 kts 283°
2026-04-27 14:46 47.60373 11.53543 24325 ft 319 kts 283°
2026-04-27 14:47 47.60812 11.50328 23928 ft 318 kts 283°
2026-04-27 14:47 47.61249 11.47107 23495 ft 318 kts 282°
2026-04-27 14:47 47.61687 11.43889 23076 ft 317 kts 282°
2026-04-27 14:47 47.62121 11.40701 22674 ft 314 kts 283°
2026-04-27 14:48 47.62536 11.37569 22260 ft 312 kts 281°
2026-04-27 14:48 47.63309 11.31228 21463 ft 311 kts 281°
2026-04-27 14:48 47.63678 11.28112 21072 ft 310 kts 281°
2026-04-27 14:49 47.64055 11.24941 20671 ft 310 kts 281°
2026-04-27 14:49 47.64429 11.21829 20277 ft 309 kts 281°
2026-04-27 14:49 47.64809 11.18681 19870 ft 309 kts 281°
2026-04-27 14:49 47.65192 11.15523 19464 ft 309 kts 281°
2026-04-27 14:50 47.65565 11.12421 19076 ft 309 kts 281°
2026-04-27 14:50 47.65942 11.09265 18668 ft 309 kts 280°
2026-04-27 14:50 47.66316 11.06115 18238 ft 310 kts 280°
2026-04-27 14:50 47.66690 11.02970 17813 ft 309 kts 280°
2026-04-27 14:51 47.67063 10.99828 17409 ft 308 kts 280°
2026-04-27 14:51 47.67437 10.96690 17014 ft 307 kts 280°
2026-04-27 14:51 47.67803 10.93608 16625 ft 306 kts 280°
2026-04-27 14:51 47.68050 10.91511 16360 ft 305 kts 280°
2026-04-27 14:52 47.68533 10.87420 15841 ft 304 kts 280°
2026-04-27 14:52 47.68900 10.84309 15439 ft 304 kts 280°
2026-04-27 14:52 47.69265 10.81212 15057 ft 303 kts 280°
2026-04-27 14:52 47.69622 10.78168 14680 ft 303 kts 280°
2026-04-27 14:53 47.69983 10.75087 14293 ft 303 kts 280°
2026-04-27 14:53 47.70342 10.71996 13891 ft 303 kts 279°
2026-04-27 14:53 47.70698 10.68907 13476 ft 302 kts 279°
2026-04-27 14:53 47.71049 10.65857 13087 ft 301 kts 279°
2026-04-27 14:54 47.71403 10.62809 12698 ft 299 kts 279°
2026-04-27 14:54 47.71757 10.59775 12316 ft 297 kts 279°
2026-04-27 14:54 47.72106 10.56753 11934 ft 296 kts 279°
2026-04-27 14:54 47.72448 10.53769 11556 ft 294 kts 279°
2026-04-27 14:55 47.72675 10.51762 11304 ft 293 kts 279°
2026-04-27 14:55 47.73122 10.47806 10796 ft 292 kts 279°
2026-04-27 14:55 47.73349 10.45799 10542 ft 291 kts 279°
2026-04-27 14:55 47.73790 10.41886 10066 ft 289 kts 279°
2026-04-27 14:56 47.74014 10.39917 9931 ft 283 kts 279°
2026-04-27 14:56 47.74335 10.37090 9635 ft 279 kts 279°
2026-04-27 14:56 47.74765 10.34272 9189 ft 281 kts 289°
2026-04-27 14:56 47.75459 10.31610 8887 ft 278 kts 290°
2026-04-27 14:57 47.76169 10.28928 8457 ft 279 kts 291°
2026-04-27 14:57 47.76877 10.26257 8111 ft 278 kts 291°
2026-04-27 14:57 47.77581 10.23592 7818 ft 275 kts 291°
2026-04-27 14:57 47.78279 10.20935 7430 ft 275 kts 290°
2026-04-27 14:58 47.78973 10.18289 7095 ft 274 kts 290°
2026-04-27 14:58 47.79665 10.15659 6783 ft 272 kts 291°
2026-04-27 14:58 47.80338 10.13095 6652 ft 262 kts 291°
2026-04-27 14:58 47.81078 10.10670 6526 ft 252 kts 301°
2026-04-27 14:59 47.82138 10.08702 6208 ft 241 kts 316°
2026-04-27 14:59 47.83494 10.07226 5589 ft 249 kts 330°
2026-04-27 14:59 47.84980 10.05935 5293 ft 242 kts 330°
2026-04-27 14:59 47.86381 10.04702 5131 ft 225 kts 331°
2026-04-27 15:00 47.87673 10.03559 5017 ft 208 kts 331°
2026-04-27 15:00 47.88948 10.02865 4944 ft 187 kts 358°
2026-04-27 15:00 47.90153 10.03203 4860 ft 165 kts 27°
2026-04-27 15:00 47.90988 10.04216 4810 ft 151 kts 51°
2026-04-27 15:01 47.91554 10.05562 4660 ft 154 kts 58°
2026-04-27 15:01 47.92097 10.06924 4485 ft 153 kts 58°
2026-04-27 15:01 47.92628 10.08256 4287 ft 149 kts 58°
2026-04-27 15:01 47.93162 10.09593 4108 ft 150 kts 57°
2026-04-27 15:02 47.93685 10.10904 3916 ft 146 kts 58°
2026-04-27 15:02 47.94195 10.12182 3715 ft 144 kts 58°
2026-04-27 15:02 47.94707 10.13464 3538 ft 143 kts 58°
2026-04-27 15:02 47.95215 10.14737 3345 ft 143 kts 58°
2026-04-27 15:03 47.95723 10.16012 3162 ft 142 kts 58°
2026-04-27 15:03 47.96231 10.17286 2949 ft 142 kts 58°
2026-04-27 15:03 47.96729 10.18536 2757 ft 142 kts 60°
2026-04-27 15:03 47.97231 10.19794 2527 ft 140 kts 58°
2026-04-27 15:04 47.97726 10.21030 2340 ft 140 kts 59°
2026-04-27 15:04 47.98214 10.22274 2159 ft 140 kts 58°
2026-04-27 15:04 47.98696 10.23482 2082 ft 121 kts 59°
2026-04-27 15:04 47.99030 10.24322 2068 ft 57 kts 59°
2026-04-27 15:05 47.99161 10.24658 2067 ft 35 kts 59°
2026-04-27 15:05 47.99275 10.24941 2064 ft 29 kts 59°
2026-04-27 15:05 47.99340 10.25120 2062 ft 9 kts 20°
2026-04-27 15:05 47.99349 10.25105 2062 ft 2 kts 243°
2026-04-27 15:06 47.99319 10.25050 2063 ft 8 kts 233°
2026-04-27 15:06 47.99283 10.24962 2064 ft 12 kts 239°
2026-04-27 15:06 47.99240 10.24854 2066 ft 12 kts 239°
2026-04-27 15:06 47.99190 10.24729 2067 ft 19 kts 239°
2026-04-27 15:07 47.99115 10.24538 2068 ft 23 kts 239°
2026-04-27 15:07 47.99029 10.24323 2068 ft 25 kts 239°
2026-04-27 15:07 47.98937 10.24093 2071 ft 27 kts 239°
2026-04-27 15:07 47.98863 10.23906 2075 ft 15 kts 239°
2026-04-27 15:08 47.98827 10.23804 2075 ft 8 kts 259°
2026-04-27 15:08 47.98864 10.23745 2078 ft 9 kts 329°
2026-04-27 15:08 47.98911 10.23674 2076 ft 12 kts 286°
2026-04-27 15:08 47.98895 10.23566 2075 ft 7 kts 252°
2026-04-27 15:09 47.98883 10.23510 2077 ft 7 kts 251°
2026-04-27 15:09 47.98865 10.23435 2081 ft 8 kts 250°
2026-04-27 15:09 47.98845 10.23353 2081 ft 8 kts 251°
2026-04-27 15:09 47.98861 10.23304 2080 ft 6 kts 343°
2026-04-27 15:10 47.98888 10.23324 2077 ft 2 kts 56°
2026-04-27 15:10 47.98890 10.23328 2078 ft 0 kts 52°
2026-04-27 15:10 47.98890 10.23329 2078 ft 0 kts 51°